#timestamp,LO_Frequency,Hit,StdDev 
1507586415.5,286046999.9,N
1507586435.3,286046999.8,N
1507586455.1,286047002.4,N
1507586475.9,286047000.6,N
1507586495.7,286047000.9,N
1507586515.5,286046998.3,N
1507586535.4,286047001.2,N
1507586555.2,286047000.8,N
1507586575.1,286046998.8,N
1507586576.0,286046998.8,N
1507586595.8,286047000.7,N
1507586615.6,286047000.9,N
1507586635.5,286047000.5,N
1507586655.3,286046998.6,N
1507586675.1,286046999.3,N
1507586695.9,286046998.3,N
1507586715.7,286046998.7,N
1507586735.6,286047000.4,N
1507586755.4,286046999.9,N
1507586775.2,286047000.3,N
1507586795.1,286047002.3,N
1507586796.0,286047002.3,N
1507586815.8,286047002.8,N
1507586835.6,286046999.8,N
1507586855.5,286047002.2,N
1507586875.3,286047001.9,N
1507586895.2,286047002.3,N
1507586915.9,286047004.4,Y
1507586935.7,286047002.6,P
1507586955.6,286047001.4,N
1507586975.4,286047000.5,N
1507586995.2,286047000.6,N
1507587015.1,286046998.6,N
1507587016.0,286046998.6,N
1507587035.8,286047000.7,N
1507587055.7,286046998.1,N
1507587075.5,286046998.2,N
1507587095.3,286047001.1,N
1507587115.2,286047000.4,N
1507587135.0,286047000.2,N
1507587135.9,286047000.2,N
1507587155.8,286047000.0,N
1507587175.6,286047002.4,N
1507587195.4,286046999.8,N
1507587215.3,286047000.3,N
1507587235.1,286047000.0,N
1507587255.8,286046999.9,N
1507587275.7,286047002.7,N
1507587295.5,286047001.4,N
1507587315.4,286047004.4,Y
1507587335.2,286047004.3,P
1507587355.0,286047003.2,N
1507587355.9,286047003.2,N
1507587375.8,286047003.5,N
1507587395.6,286047001.5,N
1507587415.4,286047002.6,N
1507587435.3,286047001.9,N
1507587455.1,286047000.3,N
1507587475.9,286047000.9,N
1507587495.7,286047001.0,N
1507587515.5,286047000.3,N
1507587535.4,286047000.9,N
1507587555.2,286046999.0,N
1507587575.1,286046998.9,N
1507587576.0,286046998.9,N
1507587595.8,286046999.3,N
1507587615.6,286046998.9,N
1507587635.5,286046996.8,N
1507587655.3,286046997.5,N
1507587675.1,286046997.3,N
1507587695.9,286046997.1,N
1507587715.7,286046996.7,N
1507587735.6,286046998.7,N
1507587755.4,286046997.0,N
1507587775.2,286046998.5,N
1507587795.1,286046997.2,N
1507587796.0,286046997.2,N
1507587815.8,286046996.5,N
1507587835.7,286046997.1,N
1507587855.5,286046998.0,N
1507587875.3,286046996.7,N
1507587895.2,286046998.4,N
1507587915.9,286046999.2,N
1507587935.7,286046999.3,N
1507587955.6,286046997.5,N
1507587975.4,286046997.0,N
1507587995.3,286046997.7,N
1507588015.1,286046996.9,N
1507588016.0,286046996.9,N
1507588035.8,286046999.1,N
1507588055.7,286046996.6,N
1507588075.5,286046996.9,N
1507588095.3,286046996.8,Y
1507588115.2,286046998.4,P
1507588135.0,286046998.9,P
1507588135.9,286046998.9,N
1507588155.8,286046998.2,Y
1507588175.6,286046999.7,P
1507588195.4,286047002.4,P
1507588215.3,286046998.2,N
1507588235.1,286046998.1,N
1507588255.9,286046998.5,N
1507588275.7,286047000.9,N
1507588295.5,286046999.1,N
1507588315.4,286046996.8,N
1507588335.2,286046999.1,N
1507588355.0,286046999.6,N
1507588355.9,286046999.6,N
1507588375.8,286046998.7,N
1507588395.6,286047001.0,N
1507588415.5,286047001.2,N
1507588435.3,286046998.1,N
1507588455.1,286047000.3,N
1507588475.9,286047001.1,N
1507588495.7,286047000.9,N
1507588515.5,286046998.6,N
1507588535.4,286047001.2,N
1507588555.2,286047000.6,N
1507588575.0,286046998.7,N
1507588576.0,286046998.7,N
1507588595.8,286046998.5,N
1507588615.6,286046999.2,N
1507588635.5,286046997.1,N
1507588655.3,286046996.7,N
1507588675.3,286046996.8,N
1507588695.1,286046998.0,N
1507588715.8,286046997.4,N
1507588735.7,286046996.6,N
1507588755.5,286046998.9,N
1507588775.4,286046998.1,N
1507588795.2,286046998.7,N
1507588815.0,286047001.2,N
1507588815.9,286047001.2,N
1507588835.8,286046996.5,N
1507588855.6,286046998.8,N
1507588875.4,286046999.0,N
1507588895.3,286046999.0,N
1507588915.1,286046999.1,N
1507588935.9,286046999.0,N
1507588955.7,286046998.0,N
1507588975.5,286046996.5,N
1507588995.4,286046999.3,N
1507589015.2,286046999.1,N
1507589035.0,286046999.6,N
1507589035.9,286046999.6,N
1507589055.8,286046997.4,N
1507589075.6,286046997.9,N
1507589095.5,286046995.1,Y
1507589115.3,286046996.7,P
1507589135.1,286046999.6,N
1507589155.9,286046999.4,N
1507589175.7,286046999.4,N
1507589195.5,286046996.7,Y
1507589215.4,286047000.3,P
1507589235.2,286047002.7,P
1507589255.1,286047002.0,N
1507589256.0,286047002.0,N
1507589275.8,286047000.6,N
1507589295.6,286046999.8,N
1507589315.5,286047002.5,N
1507589335.3,286047002.4,N
1507589355.2,286047001.6,N
1507589375.9,286047002.7,N
1507589395.7,286046999.8,N
1507589415.6,286047000.7,N
1507589435.4,286047001.0,N
1507589455.3,286047001.2,N
1507589475.1,286046999.9,N
1507589476.0,286046999.9,N
1507589495.8,286047000.0,N
1507589515.7,286047000.0,N
1507589535.5,286047000.3,N
1507589555.3,286047002.6,N
1507589575.2,286047000.3,N
1507589595.0,286046998.1,N
1507589595.9,286046998.1,N
1507589615.8,286047001.2,N
1507589635.6,286046998.9,N
1507589655.4,286046998.6,N
1507589675.3,286046998.3,N
1507589695.1,286047001.2,N
1507589715.9,286046998.7,N
1507589735.7,286047000.0,N
1507589755.5,286047001.1,N
1507589775.4,286046998.6,N
1507589795.2,286046996.6,N
1507589815.0,286046999.1,N
1507589815.9,286046999.1,N
1507589835.8,286046996.7,N
1507589855.6,286046996.9,N
1507589875.5,286046999.6,N
1507589895.3,286046997.1,N
1507589915.1,286046996.6,N
1507589935.9,286046997.7,N
1507589955.7,286046997.2,N
1507589975.5,286046997.4,N
1507589995.4,286046996.9,N
